Tracking 30970 objects as of 3-Jul-2025
HD Live streaming from Space Station
objects crossing your sky now

SL-12 R/B(2)

Track SL-12 R/B(2) now!


NORAD ID: 18387
Int'l Code: 1987-084D
Perigee: 35,734.2 km
Apogee: 35,982.9 km
Inclination: 11.4 °
Period: 1,439.4 minutes
Semi major axis: 42229 km
RCS: 2.0993 m2 (large)
Launch date: October 1, 1987
Source: Commonwealth of Independent States (former USSR) (CIS)
Launch site: TYURATAM MISSILE AND SPACE COMPLEX (TTMTR)

Note: This is a ROCKET BODY
Your satellite tracking list
Your tracking list is empty




NASA's NSSDC Master Catalog

Two Line Element Set (TLE):
1 18387U 87084D   25183.57378936  .00000131  00000-0  00000-0 0  9996
2 18387  11.4361 328.9330 0029444 239.3686 315.5743  1.00040951145270
Source of the keplerian elements: AFSPC